| time (UTC) | temp F | wind direction | speed MPH | gust MPH | rain 1hr in | rain 24hr in | rain mn in | humidity % | barometer mb |
| 20260510183017 | 100 | 179 | 3.0 | 6.0 | 0.00 | 0.00 | 0.00 | 15 | 1008.7 |
| 20260510182017 | 100 | 153 | 8.0 | 10.0 | 0.00 | 0.00 | 0.00 | 14 | 1008.8 |
| 20260510181316 | 99 | 207 | 3.0 | 6.0 | 0.00 | 0.00 | 0.00 | 14 | 1008.8 |
| 20260510180318 | 99 | 215 | 6.0 | 8.0 | 0.00 | 0.00 | 0.00 | 13 | 1008.8 |
| 20260510175317 | 99 | 199 | 4.0 | 7.0 | 0.00 | 0.00 | 0.00 | 15 | 1008.8 |
| 20260510174317 | 99 | 211 | 2.0 | 5.0 | 0.00 | 0.00 | 0.00 | 15 | 1008.9 |
| 20260510173317 | 98 | 206 | 3.0 | 6.0 | 0.00 | 0.00 | 0.00 | 16 | 1008.8 |
| 20260510172417 | 98 | 215 | 5.0 | 7.0 | 0.00 | 0.00 | 0.00 | 15 | 1008.7 |
| 20260510171416 | 97 | 197 | 4.0 | 6.0 | 0.00 | 0.00 | 0.00 | 14 | 1008.6 |
| 20260510170417 | 96 | 197 | 6.0 | 7.0 | 0.00 | 0.00 | 0.00 | 16 | 1008.6 |
| 20260510165416 | 95 | 198 | 6.0 | 8.0 | 0.00 | 0.00 | 0.00 | 18 | 1008.5 |
| 20260510164416 | 95 | 219 | 6.0 | 8.0 | 0.00 | 0.00 | 0.00 | 18 | 1008.4 |
| 20260510163416 | 94 | 224 | 5.0 | 7.0 | 0.00 | 0.00 | 0.00 | 19 | 1008.4 |
| 20260510162417 | 94 | 201 | 2.0 | 5.0 | 0.00 | 0.00 | 0.00 | 22 | 1008.3 |
| 20260510161417 | 93 | 221 | 5.0 | 6.0 | 0.00 | 0.00 | 0.00 | 20 | 1008.2 |
| 20260510160317 | 91 | 224 | 2.0 | 6.0 | 0.00 | 0.00 | 0.00 | 21 | 1008.1 |
| 20260510155317 | 89 | 243 | 1.0 | 3.0 | 0.00 | 0.00 | 0.00 | 21 | 1008.0 |
| 20260510154317 | 88 | 244 | 2.0 | 3.0 | 0.00 | 0.00 | 0.00 | 20 | 1008.0 |
| 20260510153317 | 88 | 0.0 | 0.0 | 0.00 | 0.00 | 0.00 | 21 | 1007.9 | |
| 20260510152316 | 86 | 0.0 | 0.0 | 0.00 | 0.00 | 0.00 | 22 | 1007.9 | |
| 20260510151317 | 85 | 0.0 | 0.0 | 0.00 | 0.00 | 0.00 | 22 | 1007.8 | |
| 20260510150317 | 84 | 344 | 0.0 | 0.0 | 0.00 | 0.00 | 0.00 | 21 | 1007.7 |
| 20260510145317 | 83 | 0.0 | 0.0 | 0.00 | 0.00 | 0.00 | 22 | 1007.7 | |
| 20260510144316 | 83 | 345 | 0.0 | 0.0 | 0.00 | 0.00 | 0.00 | 22 | 1007.7 |
| 20260510143317 | 82 | 43 | 1.0 | 3.0 | 0.00 | 0.00 | 0.00 | 24 | 1007.6 |
| 20260510142316 | 80 | 41 | 2.0 | 4.0 | 0.00 | 0.00 | 0.00 | 27 | 1007.5 |
| 20260510141717 | 78 | 0.0 | 0.0 | 0.00 | 0.00 | 0.00 | 28 | 1007.5 | |
| 20260510141117 | 77 | 28 | 1.0 | 2.0 | 0.00 | 0.00 | 0.00 | 26 | 1007.5 |
| 20260510140017 | 76 | 37 | 1.0 | 2.0 | 0.00 | 0.00 | 0.00 | 25 | 1007.4 |
| 20260510135017 | 74 | 74 | 0.0 | 1.0 | 0.00 | 0.00 | 0.00 | 27 | 1007.3 |
| 20260510134016 | 72 | 0.0 | 0.0 | 0.00 | 0.00 | 0.00 | 27 | 1007.2 | |
| 20260510133017 | 70 | 0.0 | 0.0 | 0.00 | 0.00 | 0.00 | 29 | 1007.2 | |
| 20260510132017 | 70 | 125 | 0.0 | 0.0 | 0.00 | 0.00 | 0.00 | 30 | 1007.0 |
| 20260510131017 | 69 | 147 | 0.0 | 0.0 | 0.00 | 0.00 | 0.00 | 30 | 1006.9 |
| 20260510130016 | 70 | 123 | 0.0 | 0.0 | 0.00 | 0.00 | 0.00 | 30 | 1006.8 |
| 20260510125017 | 69 | 124 | 0.0 | 0.0 | 0.00 | 0.00 | 0.00 | 30 | 1006.8 |
| 20260510124216 | 69 | 0.0 | 0.0 | 0.00 | 0.00 | 0.00 | 29 | 1006.8 | |
| 20260510123216 | 70 | 63 | 0.0 | 1.0 | 0.00 | 0.00 | 0.00 | 29 | 1006.8 |
| 20260510122217 | 70 | 57 | 1.0 | 2.0 | 0.00 | 0.00 | 0.00 | 28 | 1006.7 |
| 20260510121217 | 70 | 92 | 1.0 | 2.0 | 0.00 | 0.00 | 0.00 | 29 | 1006.6 |
| 20260510120217 | 70 | 105 | 0.0 | 1.0 | 0.00 | 0.00 | 0.00 | 30 | 1006.6 |
| 20260510115217 | 70 | 108 | 2.0 | 3.0 | 0.00 | 0.00 | 0.00 | 31 | 1006.6 |
| 20260510114216 | 72 | 74 | 2.0 | 3.0 | 0.00 | 0.00 | 0.00 | 28 | 1006.5 |
| 20260510113217 | 71 | 355 | 1.0 | 2.0 | 0.00 | 0.00 | 0.00 | 28 | 1006.5 |
| 20260510112216 | 71 | 1 | 2.0 | 3.0 | 0.00 | 0.00 | 0.00 | 27 | 1006.5 |
| 20260510111217 | 71 | 99 | 3.0 | 3.0 | 0.00 | 0.00 | 0.00 | 27 | 1006.4 |
| 20260510110216 | 70 | 113 | 1.0 | 1.0 | 0.00 | 0.00 | 0.00 | 28 | 1006.4 |
| 20260510105217 | 70 | 109 | 2.0 | 3.0 | 0.00 | 0.00 | 0.00 | 27 | 1006.4 |
| 20260510105017 | 71 | 114 | 3.0 | 4.0 | 0.00 | 0.00 | 0.00 | 26 | 1006.4 |
| 20260510104017 | 71 | 107 | 3.0 | 4.0 | 0.00 | 0.00 | 0.00 | 27 | 1006.3 |
| 20260510103017 | 71 | 96 | 2.0 | 3.0 | 0.00 | 0.00 | 0.00 | 28 | 1006.2 |
| 20260510102616 | 71 | 104 | 3.0 | 4.0 | 0.00 | 0.00 | 0.00 | 29 | 1006.2 |
| 20260510101616 | 73 | 26 | 1.0 | 2.0 | 0.00 | 0.00 | 0.00 | 30 | 1006.2 |
| 20260510100617 | 73 | 12 | 2.0 | 3.0 | 0.00 | 0.00 | 0.00 | 31 | 1006.2 |
| 20260510095616 | 73 | 0.0 | 0.0 | 0.00 | 0.00 | 0.00 | 31 | 1006.2 | |
| 20260510094617 | 74 | 0.0 | 0.0 | 0.00 | 0.00 | 0.00 | 30 | 1006.2 | |
| 20260510093617 | 73 | 0.0 | 0.0 | 0.00 | 0.00 | 0.00 | 31 | 1006.2 | |
| 20260510092617 | 73 | 0.0 | 0.0 | 0.00 | 0.00 | 0.00 | 31 | 1006.2 | |
| 20260510092417 | 74 | 0.0 | 0.0 | 0.00 | 0.00 | 0.00 | 30 | 1006.2 | |
| 20260510091817 | 72 | 179 | 1.0 | 2.0 | 0.00 | 0.00 | 0.00 | 29 | 1006.2 |
| 20260510090816 | 73 | 198 | 0.0 | 1.0 | 0.00 | 0.00 | 0.00 | 30 | 1006.3 |
| 20260510085817 | 73 | 167 | 1.0 | 2.0 | 0.00 | 0.00 | 0.00 | 31 | 1006.3 |
| 20260510084816 | 74 | 0.0 | 0.0 | 0.00 | 0.00 | 0.00 | 31 | 1006.3 | |
| 20260510083817 | 75 | 257 | 0.0 | 2.0 | 0.00 | 0.00 | 0.00 | 30 | 1006.3 |
| 20260510082817 | 76 | 0.0 | 0.0 | 0.00 | 0.00 | 0.00 | 30 | 1006.4 | |
| 20260510081817 | 77 | 271 | 2.0 | 2.0 | 0.00 | 0.00 | 0.00 | 29 | 1006.4 |
| 20260510080817 | 77 | 253 | 2.0 | 2.0 | 0.00 | 0.00 | 0.00 | 28 | 1006.4 |
| 20260510075817 | 76 | 252 | 0.0 | 0.0 | 0.00 | 0.00 | 0.00 | 29 | 1006.5 |
| 20260510074817 | 77 | 0.0 | 0.0 | 0.00 | 0.00 | 0.00 | 28 | 1006.5 | |
| 20260510073817 | 77 | 0.0 | 0.0 | 0.00 | 0.00 | 0.00 | 28 | 1006.6 | |
| 20260510072817 | 78 | 0.0 | 0.0 | 0.00 | 0.00 | 0.00 | 27 | 1006.5 | |
| 20260510071816 | 77 | 0.0 | 0.0 | 0.00 | 0.00 | 0.00 | 28 | 1006.5 | |
| 20260510070817 | 78 | 171 | 1.0 | 2.0 | 0.00 | 0.00 | 0.00 | 27 | 1006.4 |
| 20260510065817 | 79 | 0.0 | 0.0 | 0.00 | 0.00 | 0.00 | 26 | 1006.4 | |
| 20260510065717 | 81 | 0.0 | 0.0 | 0.00 | 0.00 | 0.00 | 26 | 1006.4 | |
| 20260510064716 | 81 | 265 | 3.0 | 3.0 | 0.00 | 0.00 | 0.00 | 25 | 1006.4 |
| 20260510063717 | 81 | 301 | 2.0 | 3.0 | 0.00 | 0.00 | 0.00 | 25 | 1006.6 |
| 20260510062717 | 82 | 0.0 | 0.0 | 0.00 | 0.00 | 0.00 | 24 | 1006.5 | |
| 20260510061716 | 83 | 311 | 4.0 | 5.0 | 0.00 | 0.00 | 0.00 | 24 | 1006.6 |
| 20260510060717 | 82 | 0.0 | 0.0 | 0.00 | 0.00 | 0.00 | 24 | 1006.5 | |
| 20260510055717 | 84 | 307 | 2.0 | 4.0 | 0.00 | 0.00 | 0.00 | 22 | 1006.5 |
| 20260510054716 | 84 | 326 | 4.0 | 5.0 | 0.00 | 0.00 | 0.00 | 21 | 1006.5 |
| 20260510053717 | 85 | 231 | 2.0 | 2.0 | 0.00 | 0.00 | 0.00 | 20 | 1006.4 |
| 20260510051716 | 84 | 145 | 2.0 | 3.0 | 0.00 | 0.00 | 0.00 | 20 | 1006.1 |
| 20260510050717 | 85 | 148 | 4.0 | 5.0 | 0.00 | 0.00 | 0.00 | 20 | 1005.9 |
| 20260510045716 | 85 | 158 | 4.0 | 5.0 | 0.00 | 0.00 | 0.00 | 20 | 1005.7 |
| 20260510044717 | 86 | 175 | 4.0 | 5.0 | 0.00 | 0.00 | 0.00 | 18 | 1005.5 |
| 20260510043716 | 86 | 158 | 3.0 | 4.0 | 0.00 | 0.00 | 0.00 | 17 | 1005.4 |
| 20260510042717 | 86 | 170 | 4.0 | 6.0 | 0.00 | 0.00 | 0.00 | 17 | 1005.3 |
| 20260510041716 | 87 | 193 | 2.0 | 6.0 | 0.00 | 0.00 | 0.00 | 15 | 1005.2 |
| 20260510040717 | 88 | 191 | 4.0 | 5.0 | 0.00 | 0.00 | 0.00 | 13 | 1005.1 |
| 20260510035717 | 89 | 196 | 2.0 | 3.0 | 0.00 | 0.00 | 0.00 | 13 | 1004.9 |
| 20260510033717 | 90 | 213 | 4.0 | 7.0 | 0.00 | 0.00 | 0.00 | 12 | 1004.6 |
| 20260510032716 | 91 | 216 | 3.0 | 5.0 | 0.00 | 0.00 | 0.00 | 12 | 1004.4 |
| 20260510031717 | 91 | 219 | 3.0 | 4.0 | 0.00 | 0.00 | 0.00 | 13 | 1004.3 |
| 20260510030716 | 92 | 222 | 3.0 | 5.0 | 0.00 | 0.00 | 0.00 | 14 | 1004.1 |
| 20260510025717 | 93 | 222 | 4.0 | 5.0 | 0.00 | 0.00 | 0.00 | 14 | 1003.9 |
| 20260510024717 | 93 | 222 | 3.0 | 4.0 | 0.00 | 0.00 | 0.00 | 16 | 1003.9 |
| 20260510023716 | 95 | 210 | 3.0 | 4.0 | 0.00 | 0.00 | 0.00 | 16 | 1003.8 |
| 20260510022717 | 97 | 238 | 4.0 | 5.0 | 0.00 | 0.00 | 0.00 | 14 | 1003.6 |
| 20260510021717 | 98 | 245 | 4.0 | 6.0 | 0.00 | 0.00 | 0.00 | 13 | 1003.6 |
| 20260510020716 | 99 | 253 | 5.0 | 6.0 | 0.00 | 0.00 | 0.00 | 13 | 1003.6 |
| 20260510015717 | 100 | 253 | 6.0 | 8.0 | 0.00 | 0.00 | 0.00 | 13 | 1003.5 |
| 20260510014717 | 101 | 246 | 5.0 | 7.0 | 0.00 | 0.00 | 0.00 | 14 | 1003.4 |
| 20260510013716 | 101 | 248 | 6.0 | 7.0 | 0.00 | 0.00 | 0.00 | 13 | 1003.3 |
| 20260510012717 | 102 | 256 | 6.0 | 7.0 | 0.00 | 0.00 | 0.00 | 12 | 1003.3 |
| 20260510011716 | 103 | 261 | 7.0 | 9.0 | 0.00 | 0.00 | 0.00 | 12 | 1003.3 |
| 20260510010717 | 103 | 252 | 7.0 | 10.0 | 0.00 | 0.00 | 0.00 | 12 | 1003.3 |
| 20260510005716 | 104 | 258 | 6.0 | 9.0 | 0.00 | 0.00 | 0.00 | 11 | 1003.3 |
| 20260510004716 | 105 | 251 | 9.0 | 12.0 | 0.00 | 0.00 | 0.00 | 11 | 1003.2 |
| 20260510003717 | 105 | 261 | 6.0 | 7.0 | 0.00 | 0.00 | 0.00 | 10 | 1003.2 |
| 20260510002716 | 105 | 266 | 5.0 | 7.0 | 0.00 | 0.00 | 0.00 | 9 | 1003.2 |
| 20260510001717 | 105 | 253 | 6.0 | 7.0 | 0.00 | 0.00 | 0.00 | 9 | 1003.3 |
| 20260510000716 | 105 | 259 | 5.0 | 7.0 | 0.00 | 0.00 | 0.00 | 9 | 1003.4 |
| 20260509235717 | 106 | 252 | 6.0 | 8.0 | 0.00 | 0.00 | 0.00 | 9 | 1003.3 |
| 20260509234717 | 106 | 228 | 9.0 | 11.0 | 0.00 | 0.00 | 0.00 | 9 | 1003.4 |
| 20260509233716 | 107 | 236 | 6.0 | 8.0 | 0.00 | 0.00 | 0.00 | 8 | 1003.5 |
| 20260509232716 | 107 | 229 | 7.0 | 9.0 | 0.00 | 0.00 | 0.00 | 8 | 1003.5 |
| 20260509231717 | 106 | 225 | 5.0 | 6.0 | 0.00 | 0.00 | 0.00 | 8 | 1003.6 |
| 20260509231017 | 106 | 239 | 4.0 | 5.0 | 0.00 | 0.00 | 0.00 | 8 | 1003.7 |
| 20260509230517 | 107 | 226 | 7.0 | 8.0 | 0.00 | 0.00 | 0.00 | 8 | 1003.7 |
| 20260509225516 | 106 | 219 | 6.0 | 7.0 | 0.00 | 0.00 | 0.00 | 8 | 1003.9 |
| 20260509224517 | 107 | 228 | 5.0 | 6.0 | 0.00 | 0.00 | 0.00 | 8 | 1004.0 |
| 20260509222517 | 106 | 246 | 5.0 | 9.0 | 0.00 | 0.00 | 0.00 | 9 | 1004.3 |
| 20260509221517 | 106 | 251 | 7.0 | 10.0 | 0.00 | 0.00 | 0.00 | 8 | 1004.3 |
| 20260509220517 | 105 | 165 | 4.0 | 7.0 | 0.00 | 0.00 | 0.00 | 9 | 1004.6 |
| 20260509215517 | 104 | 233 | 2.0 | 3.0 | 0.00 | 0.00 | 0.00 | 10 | 1004.8 |
| 20260509214517 | 104 | 293 | 8.0 | 10.0 | 0.00 | 0.00 | 0.00 | 10 | 1004.9 |
| 20260509214217 | 104 | 295 | 7.0 | 9.0 | 0.00 | 0.00 | 0.00 | 10 | 1005.0 |
| 20260509213217 | 104 | 196 | 5.0 | 7.0 | 0.00 | 0.00 | 0.00 | 11 | 1005.2 |
| 20260509212217 | 105 | 215 | 4.0 | 6.0 | 0.00 | 0.00 | 0.00 | 10 | 1005.4 |
| 20260509211217 | 103 | 247 | 7.0 | 8.0 | 0.00 | 0.00 | 0.00 | 9 | 1005.7 |
| 20260509210216 | 104 | 232 | 7.0 | 9.0 | 0.00 | 0.00 | 0.00 | 9 | 1005.8 |
| 20260509204217 | 104 | 227 | 5.0 | 9.0 | 0.00 | 0.00 | 0.00 | 9 | 1006.1 |
| 20260509203216 | 103 | 183 | 4.0 | 6.0 | 0.00 | 0.00 | 0.00 | 12 | 1006.3 |
| 20260509202217 | 103 | 227 | 6.0 | 8.0 | 0.00 | 0.00 | 0.00 | 10 | 1006.4 |
| 20260509201217 | 100 | 288 | 3.0 | 3.0 | 0.00 | 0.00 | 0.00 | 10 | 1006.5 |
| 20260509201017 | 100 | 106 | 1.0 | 2.0 | 0.00 | 0.00 | 0.00 | 11 | 1006.5 |
| 20260509200017 | 100 | 267 | 4.0 | 7.0 | 0.00 | 0.00 | 0.00 | 10 | 1006.8 |
| 20260509195016 | 101 | 222 | 6.0 | 7.0 | 0.00 | 0.00 | 0.00 | 9 | 1006.9 |
| 20260509194017 | 99 | 304 | 4.0 | 6.0 | 0.00 | 0.00 | 0.00 | 9 | 1007.0 |
| 20260509193017 | 100 | 241 | 6.0 | 7.0 | 0.00 | 0.00 | 0.00 | 9 | 1007.2 |
| 20260509192018 | 99 | 263 | 6.0 | 8.0 | 0.00 | 0.00 | 0.00 | 10 | 1007.3 |
| 20260509191016 | 98 | 274 | 4.0 | 6.0 | 0.00 | 0.00 | 0.00 | 11 | 1007.3 |
| 20260509190017 | 99 | 253 | 4.0 | 5.0 | 0.00 | 0.00 | 0.00 | 8 | 1007.5 |
| 20260509185016 | 99 | 260 | 5.0 | 7.0 | 0.00 | 0.00 | 0.00 | 9 | 1007.6 |
| 20260509184017 | 97 | 321 | 5.0 | 7.0 | 0.00 | 0.00 | 0.00 | 9 | 1007.6 |